BER43 EDDN-LICA

Flight info

Callsign BER43
Flight time 1h 47m
Altitude 39000
Route AKANU L603 OLETU Z106 MANAL M736 LIZUM N503 LIKDA DCT NIVAS DCT ANC DCT BAR DCT CRN
Aircraft B752/M-SDE1FGHILRWXYZ/LB1

Departure

Time 2026-04-24 20:50
Airport Nuremberg Airport (EDDN)

Arrival

Time 2026-04-24 22:38
Airport Lamezia Terme Sant'Eufemia International Airport (LICA)
Time Latitude Longitude Altitude Speed Heading
2026-04-24 19:48 49.49540 11.08551 1053 ft 0 kts
2026-04-24 20:45 49.49543 11.08552 1053 ft 2 kts
2026-04-24 20:45 49.49586 11.08563 1053 ft 4 kts 18°
2026-04-24 20:45 49.49597 11.08607 1053 ft 6 kts 92°
2026-04-24 20:46 49.49591 11.08681 1053 ft 7 kts 97°
2026-04-24 20:46 49.49583 11.08769 1053 ft 8 kts 99°
2026-04-24 20:46 49.49574 11.08864 1053 ft 9 kts 99°
2026-04-24 20:46 49.49563 11.08969 1053 ft 10 kts 99°
2026-04-24 20:47 49.49551 11.09083 1053 ft 11 kts 98°
2026-04-24 20:47 49.49539 11.09208 1053 ft 12 kts 98°
2026-04-24 20:47 49.49533 11.09342 1053 ft 12 kts 75°
2026-04-24 20:47 49.49580 11.09460 1053 ft 11 kts 53°
2026-04-24 20:48 49.49590 11.09482 1053 ft 0 kts 53°
2026-04-24 20:48 49.49602 11.09506 1053 ft 5 kts 53°
2026-04-24 20:48 49.49634 11.09552 1053 ft 7 kts 28°
2026-04-24 20:49 49.49681 11.09547 1053 ft 7 kts 325°
2026-04-24 20:49 49.49709 11.09445 1053 ft 24 kts 279°
2026-04-24 20:49 49.49771 11.08797 1053 ft 95 kts 278°
2026-04-24 20:49 49.49903 11.07464 1058 ft 158 kts 279°
2026-04-24 20:50 49.50096 11.05619 1398 ft 192 kts 280°
2026-04-24 20:50 49.50300 11.03591 2482 ft 194 kts 280°
2026-04-24 20:50 49.50470 11.01535 3126 ft 203 kts 280°
2026-04-24 20:50 49.50670 10.99364 3807 ft 210 kts 282°
2026-04-24 20:51 49.50924 10.97053 4249 ft 232 kts 282°
2026-04-24 20:51 49.51109 10.94498 4852 ft 252 kts 268°
2026-04-24 20:51 49.50574 10.91873 5492 ft 273 kts 239°
2026-04-24 20:51 49.49209 10.89863 6463 ft 280 kts 210°
2026-04-24 20:52 49.47343 10.88875 7361 ft 288 kts 195°
2026-04-24 20:52 49.45427 10.88060 8264 ft 291 kts 199°
2026-04-24 20:52 49.43487 10.87121 9135 ft 296 kts 199°
2026-04-24 20:52 49.41509 10.86124 10021 ft 301 kts 200°
2026-04-24 20:53 49.39525 10.85098 10803 ft 310 kts 201°
2026-04-24 20:53 49.37401 10.83984 11262 ft 332 kts 201°
2026-04-24 20:53 49.35180 10.82812 11688 ft 352 kts 201°
2026-04-24 20:53 49.32791 10.81548 12087 ft 372 kts 201°
2026-04-24 20:54 49.30276 10.80217 12558 ft 389 kts 201°
2026-04-24 20:54 49.27733 10.78873 13427 ft 393 kts 201°
2026-04-24 20:54 49.25131 10.77498 14266 ft 397 kts 201°
2026-04-24 20:54 49.22530 10.76124 15133 ft 400 kts 201°
2026-04-24 20:55 49.19894 10.74733 15936 ft 404 kts 201°
2026-04-24 20:55 49.17252 10.73340 16688 ft 408 kts 201°
2026-04-24 20:55 49.14570 10.71927 17446 ft 411 kts 201°
2026-04-24 20:55 49.11778 10.70780 18126 ft 417 kts 191°
2026-04-24 20:56 49.08871 10.70415 18786 ft 425 kts 181°
2026-04-24 20:56 49.05906 10.70863 19462 ft 431 kts 170°
2026-04-24 20:56 49.03014 10.72112 20107 ft 437 kts 160°
2026-04-24 20:56 49.00271 10.74133 20757 ft 443 kts 150°
2026-04-24 20:57 48.97745 10.76896 21397 ft 449 kts 140°
2026-04-24 20:57 48.95506 10.80280 22035 ft 453 kts 133°
2026-04-24 20:57 48.93301 10.83748 22657 ft 457 kts 135°
2026-04-24 20:57 48.91057 10.87165 23269 ft 461 kts 135°
2026-04-24 20:58 48.88761 10.90607 23861 ft 465 kts 136°
2026-04-24 20:58 48.86439 10.94049 24428 ft 468 kts 136°
2026-04-24 20:58 48.84118 10.97464 25020 ft 471 kts 136°
2026-04-24 20:58 48.81734 11.00957 25622 ft 473 kts 136°
2026-04-24 20:59 48.79349 11.04440 26045 ft 478 kts 136°
2026-04-24 20:59 48.76956 11.07924 26567 ft 480 kts 136°
2026-04-24 20:59 48.74506 11.11473 27066 ft 483 kts 136°
2026-04-24 20:59 48.72084 11.14977 27529 ft 486 kts 136°
2026-04-24 21:00 48.69639 11.18507 27987 ft 489 kts 136°
2026-04-24 21:00 48.67149 11.22098 28475 ft 491 kts 137°
2026-04-24 21:00 48.64722 11.25724 28853 ft 495 kts 132°
2026-04-24 21:00 48.62563 11.29799 29308 ft 497 kts 127°
2026-04-24 21:01 48.60498 11.33921 29706 ft 499 kts 127°
2026-04-24 21:01 48.58399 11.38111 30159 ft 500 kts 127°
2026-04-24 21:01 48.56308 11.42291 30617 ft 500 kts 127°
2026-04-24 21:01 48.54200 11.46504 31103 ft 500 kts 127°
2026-04-24 21:02 48.52127 11.50647 31587 ft 499 kts 127°
2026-04-24 21:02 48.49867 11.54646 32003 ft 498 kts 135°
2026-04-24 21:02 48.47255 11.58050 32440 ft 495 kts 145°
2026-04-24 21:02 48.44355 11.60773 32913 ft 492 kts 154°
2026-04-24 21:03 48.41179 11.62807 33314 ft 489 kts 163°
2026-04-24 21:03 48.37935 11.64198 33781 ft 486 kts 167°
2026-04-24 21:03 48.34647 11.65472 34220 ft 484 kts 168°
2026-04-24 21:03 48.31398 11.66681 34677 ft 483 kts 169°
2026-04-24 21:04 48.28154 11.67848 35054 ft 483 kts 169°
2026-04-24 21:04 48.24883 11.69005 35459 ft 482 kts 169°
2026-04-24 21:04 48.21602 11.70160 35833 ft 482 kts 169°
2026-04-24 21:04 48.18351 11.71293 36182 ft 482 kts 169°
2026-04-24 21:05 48.15084 11.72424 36474 ft 483 kts 169°
2026-04-24 21:05 48.11817 11.73549 36842 ft 482 kts 169°
2026-04-24 21:05 48.08534 11.74678 37180 ft 482 kts 169°
2026-04-24 21:05 48.05298 11.75786 37464 ft 482 kts 169°
2026-04-24 21:06 48.02056 11.76894 37751 ft 481 kts 169°
2026-04-24 21:06 47.98795 11.78007 37972 ft 482 kts 169°
2026-04-24 21:06 47.95509 11.79127 38184 ft 482 kts 169°
2026-04-24 21:06 47.92256 11.80206 38417 ft 481 kts 172°
2026-04-24 21:07 47.88927 11.80766 38609 ft 479 kts 181°
2026-04-24 21:07 47.85594 11.80699 38728 ft 479 kts 184°
2026-04-24 21:07 47.82289 11.80550 38859 ft 480 kts 184°
2026-04-24 21:07 47.78940 11.80390 38998 ft 481 kts 184°
2026-04-24 21:08 47.75606 11.80218 39165 ft 478 kts 184°
2026-04-24 21:08 47.72289 11.80042 39190 ft 475 kts 184°
2026-04-24 21:08 47.65685 11.79678 39203 ft 477 kts 184°
2026-04-24 21:09 47.59036 11.79306 39212 ft 479 kts 184°
2026-04-24 21:09 47.52405 11.78935 39212 ft 477 kts 184°
2026-04-24 21:10 47.45795 11.78563 39228 ft 478 kts 184°
2026-04-24 21:10 47.39141 11.78191 39221 ft 479 kts 184°
2026-04-24 21:11 47.32518 11.77821 39210 ft 479 kts 184°
2026-04-24 21:11 47.25870 11.77450 39228 ft 479 kts 184°
2026-04-24 21:12 47.20281 11.77139 39240 ft 479 kts 184°
2026-04-24 21:12 47.12553 11.76710 39241 ft 477 kts 183°
2026-04-24 21:13 47.05957 11.76359 39253 ft 478 kts 182°
2026-04-24 21:13 46.99378 11.77431 39273 ft 481 kts 165°
2026-04-24 21:14 46.92996 11.80373 39227 ft 481 kts 163°
2026-04-24 21:14 46.86646 11.83388 39230 ft 481 kts 162°
2026-04-24 21:15 46.80311 11.86421 39233 ft 482 kts 162°
2026-04-24 21:15 46.73938 11.89477 39225 ft 480 kts 162°
2026-04-24 21:16 46.67619 11.92504 39227 ft 481 kts 162°
2026-04-24 21:16 46.61303 11.95523 39212 ft 481 kts 162°
2026-04-24 21:17 46.54943 11.98556 39203 ft 481 kts 161°
2026-04-24 21:17 46.48575 12.01586 39204 ft 482 kts 161°
2026-04-24 21:18 46.42216 12.04606 39199 ft 481 kts 161°
2026-04-24 21:18 46.35850 12.07620 39187 ft 480 kts 161°
2026-04-24 21:19 46.29478 12.10629 39178 ft 480 kts 161°
2026-04-24 21:19 46.23127 12.13622 39163 ft 480 kts 161°
2026-04-24 21:20 46.13601 12.18097 39125 ft 480 kts 161°
2026-04-24 21:21 46.07296 12.21050 39099 ft 478 kts 161°
2026-04-24 21:21 46.00960 12.24011 39084 ft 478 kts 161°
2026-04-24 21:22 45.94629 12.26961 39080 ft 479 kts 161°
2026-04-24 21:22 45.88318 12.29983 39077 ft 479 kts 158°
2026-04-24 21:23 45.82077 12.33347 39072 ft 479 kts 158°
2026-04-24 21:23 45.75828 12.36690 39070 ft 479 kts 158°
2026-04-24 21:24 45.69568 12.40029 39064 ft 479 kts 158°
2026-04-24 21:24 45.63342 12.43341 39065 ft 479 kts 158°
2026-04-24 21:25 45.57097 12.46654 39064 ft 480 kts 158°
2026-04-24 21:25 45.50831 12.49970 39058 ft 479 kts 158°
2026-04-24 21:26 45.44581 12.53272 39058 ft 480 kts 157°
2026-04-24 21:26 45.38351 12.56553 39057 ft 478 kts 157°
2026-04-24 21:27 45.32111 12.59833 39058 ft 478 kts 157°
2026-04-24 21:27 45.25861 12.63110 39056 ft 479 kts 157°
2026-04-24 21:28 45.19601 12.66385 39055 ft 479 kts 158°
2026-04-24 21:28 45.13365 12.69639 39054 ft 479 kts 158°
2026-04-24 21:29 45.07126 12.72888 39052 ft 479 kts 157°
2026-04-24 21:29 45.00896 12.76124 39054 ft 477 kts 158°
2026-04-24 21:30 44.94659 12.79356 39051 ft 477 kts 157°
2026-04-24 21:30 44.88415 12.82585 39046 ft 478 kts 157°
2026-04-24 21:31 44.82206 12.85788 39047 ft 478 kts 157°
2026-04-24 21:31 44.75959 12.89003 39052 ft 478 kts 157°
2026-04-24 21:32 44.69734 12.92200 39047 ft 478 kts 157°
2026-04-24 21:32 44.63473 12.95407 39049 ft 477 kts 157°
2026-04-24 21:33 44.57274 12.98576 39050 ft 477 kts 157°
2026-04-24 21:33 44.51015 13.01767 39049 ft 477 kts 157°
2026-04-24 21:34 44.44801 13.04929 39053 ft 477 kts 157°
2026-04-24 21:34 44.38586 13.08085 39048 ft 477 kts 157°
2026-04-24 21:35 44.32371 13.11233 39051 ft 477 kts 157°
2026-04-24 21:35 44.26150 13.14376 39047 ft 476 kts 156°
2026-04-24 21:36 44.19912 13.17522 39049 ft 475 kts 156°
2026-04-24 21:36 44.13691 13.20652 39049 ft 476 kts 156°
2026-04-24 21:37 44.07465 13.23777 39052 ft 476 kts 156°
2026-04-24 21:37 44.01273 13.26878 39054 ft 475 kts 156°
2026-04-24 21:38 43.95074 13.29975 39051 ft 475 kts 156°
2026-04-24 21:38 43.88839 13.33084 39054 ft 475 kts 156°
2026-04-24 21:39 43.82645 13.36166 39053 ft 474 kts 156°
2026-04-24 21:39 43.76430 13.39252 39053 ft 475 kts 156°
2026-04-24 21:40 43.70198 13.42339 39065 ft 476 kts 156°
2026-04-24 21:40 43.63972 13.45416 39062 ft 475 kts 156°
2026-04-24 21:41 43.58160 13.49498 39071 ft 466 kts 139°
2026-04-24 21:41 43.53469 13.55537 39070 ft 462 kts 130°
2026-04-24 21:42 43.49012 13.61813 39051 ft 460 kts 130°
2026-04-24 21:42 43.44550 13.68143 39075 ft 461 kts 130°
2026-04-24 21:43 43.40089 13.74486 39062 ft 461 kts 130°
2026-04-24 21:43 43.37943 13.77731 37198 ft 480 kts 131°
2026-04-24 21:43 43.35692 13.80937 37066 ft 453 kts 130°
2026-04-24 21:43 43.33655 13.83868 37895 ft 409 kts 129°
2026-04-24 21:44 43.31726 13.86608 38190 ft 376 kts 129°
2026-04-24 21:44 43.29966 13.89130 37595 ft 376 kts 129°
2026-04-24 21:44 43.28126 13.91750 36521 ft 381 kts 129°
2026-04-24 21:44 43.26335 13.94374 35598 ft 384 kts 129°
2026-04-24 21:45 43.24486 13.97055 35754 ft 383 kts 130°
2026-04-24 21:45 43.22625 13.99624 36298 ft 379 kts 131°
2026-04-24 21:45 43.20754 14.02112 36857 ft 374 kts 131°
2026-04-24 21:45 43.18916 14.04626 37117 ft 376 kts 129°
2026-04-24 21:46 43.17149 14.07286 37036 ft 385 kts 126°
2026-04-24 21:46 43.13477 14.12758 37316 ft 396 kts 134°
2026-04-24 21:46 43.11431 14.15323 37599 ft 396 kts 132°
2026-04-24 21:47 43.09455 14.17939 37883 ft 395 kts 131°
2026-04-24 21:47 43.08163 14.19679 38071 ft 395 kts 130°
2026-04-24 21:47 43.05569 14.23225 38451 ft 394 kts 130°
2026-04-24 21:47 43.03647 14.25877 38724 ft 393 kts 130°
2026-04-24 21:48 43.01736 14.28527 39001 ft 392 kts 129°
2026-04-24 21:48 42.97885 14.33880 39028 ft 399 kts 130°
2026-04-24 21:49 42.93972 14.39320 39020 ft 406 kts 130°
2026-04-24 21:49 42.89972 14.44871 39036 ft 412 kts 130°
2026-04-24 21:50 42.85921 14.50484 39016 ft 419 kts 130°
2026-04-24 21:50 42.81834 14.56136 39029 ft 424 kts 130°
2026-04-24 21:51 42.77663 14.61892 39014 ft 430 kts 130°
2026-04-24 21:51 42.73448 14.67695 39043 ft 432 kts 130°
2026-04-24 21:52 42.69169 14.73578 39040 ft 439 kts 131°
2026-04-24 21:52 42.64872 14.79471 38915 ft 443 kts 131°
2026-04-24 21:52 42.62698 14.82447 39053 ft 444 kts 131°
2026-04-24 21:53 42.60550 14.85385 39033 ft 446 kts 131°
2026-04-24 21:53 42.56149 14.91396 39045 ft 451 kts 130°
2026-04-24 21:54 42.51716 14.97438 39032 ft 455 kts 131°
2026-04-24 21:54 42.47216 15.03558 39033 ft 459 kts 131°
2026-04-24 21:55 42.42722 15.09653 39030 ft 462 kts 131°
2026-04-24 21:55 42.38037 15.15666 39038 ft 463 kts 132°
2026-04-24 21:56 42.33409 15.21687 39031 ft 462 kts 131°
2026-04-24 21:56 42.28863 15.27795 39033 ft 463 kts 131°
2026-04-24 21:57 42.24329 15.33903 39033 ft 463 kts 131°
2026-04-24 21:57 42.19761 15.40039 39035 ft 464 kts 131°
2026-04-24 21:58 42.15219 15.46123 39033 ft 463 kts 131°
2026-04-24 21:58 42.10633 15.52253 39036 ft 462 kts 131°
2026-04-24 21:59 42.06094 15.58308 39036 ft 463 kts 131°
2026-04-24 21:59 42.01519 15.64398 39038 ft 464 kts 131°
2026-04-24 22:00 41.96923 15.70501 39052 ft 464 kts 131°
2026-04-24 22:00 41.92331 15.76586 39079 ft 464 kts 131°
2026-04-24 22:01 41.87753 15.82668 39070 ft 462 kts 130°
2026-04-24 22:01 41.83277 15.88846 39085 ft 463 kts 131°
2026-04-24 22:02 41.78742 15.94917 39082 ft 463 kts 131°
2026-04-24 22:02 41.74165 16.00970 39087 ft 464 kts 131°
2026-04-24 22:03 41.69564 16.07020 39085 ft 465 kts 131°
2026-04-24 22:03 41.64947 16.13068 39088 ft 463 kts 131°
2026-04-24 22:04 41.60334 16.19080 39076 ft 463 kts 132°
2026-04-24 22:04 41.55729 16.25084 39063 ft 464 kts 131°
2026-04-24 22:05 41.51135 16.31069 39076 ft 463 kts 131°
2026-04-24 22:05 41.46429 16.36968 39065 ft 465 kts 134°
2026-04-24 22:06 41.41698 16.42850 39061 ft 464 kts 132°
2026-04-24 22:06 41.37049 16.48763 39068 ft 465 kts 132°
2026-04-24 22:07 41.32410 16.54709 39061 ft 464 kts 132°
2026-04-24 22:07 41.27740 16.60704 39067 ft 463 kts 131°
2026-04-24 22:08 41.23107 16.66648 39070 ft 464 kts 132°
2026-04-24 22:08 41.18359 16.72552 39062 ft 468 kts 138°
2026-04-24 22:09 41.12672 16.76773 39074 ft 476 kts 157°
2026-04-24 22:09 41.06152 16.78663 39070 ft 484 kts 168°
2026-04-24 22:10 40.99450 16.79863 39060 ft 484 kts 169°
2026-04-24 22:10 40.92770 16.80926 39068 ft 484 kts 170°
2026-04-24 22:11 40.86107 16.81932 39059 ft 484 kts 170°
2026-04-24 22:11 40.79386 16.82925 39065 ft 484 kts 171°
2026-04-24 22:12 40.72733 16.83898 39063 ft 484 kts 171°
2026-04-24 22:12 40.69365 16.84388 38921 ft 487 kts 171°
2026-04-24 22:12 40.65982 16.84881 38644 ft 487 kts 171°
2026-04-24 22:12 40.62669 16.85361 38365 ft 483 kts 171°
2026-04-24 22:13 40.59331 16.85844 38082 ft 481 kts 171°
2026-04-24 22:13 40.56020 16.86324 37778 ft 481 kts 170°
2026-04-24 22:13 40.52688 16.86807 37476 ft 483 kts 170°
2026-04-24 22:13 40.49320 16.87294 37162 ft 483 kts 170°
2026-04-24 22:14 40.45992 16.87775 36869 ft 483 kts 170°
2026-04-24 22:14 40.42681 16.88252 36582 ft 482 kts 170°
2026-04-24 22:14 40.39361 16.88730 36348 ft 483 kts 170°
2026-04-24 22:14 40.36008 16.89214 36016 ft 484 kts 170°
2026-04-24 22:15 40.32676 16.89692 35685 ft 482 kts 170°
2026-04-24 22:15 40.29317 16.90173 35533 ft 473 kts 170°
2026-04-24 22:15 40.26112 16.90630 35372 ft 455 kts 169°
2026-04-24 22:15 40.23045 16.91068 34874 ft 448 kts 169°
2026-04-24 22:16 40.19942 16.91516 34202 ft 451 kts 169°
2026-04-24 22:16 40.16784 16.91972 33467 ft 459 kts 169°
2026-04-24 22:16 40.13590 16.92430 32708 ft 463 kts 169°
2026-04-24 22:16 40.10398 16.92903 31936 ft 462 kts 168°
2026-04-24 22:17 40.07217 16.93471 31161 ft 462 kts 168°
2026-04-24 22:17 40.04053 16.93991 30390 ft 464 kts 168°
2026-04-24 22:17 40.00856 16.94488 29596 ft 467 kts 169°
2026-04-24 22:17 39.97628 16.94973 28789 ft 466 kts 169°
2026-04-24 22:18 39.94414 16.95445 27984 ft 461 kts 169°
2026-04-24 22:18 39.91279 16.95898 27205 ft 454 kts 169°
2026-04-24 22:18 39.88143 16.96348 26434 ft 449 kts 169°
2026-04-24 22:18 39.85077 16.96786 25680 ft 445 kts 169°
2026-04-24 22:19 39.82016 16.97222 24941 ft 442 kts 169°
2026-04-24 22:19 39.78979 16.97653 24218 ft 440 kts 169°
2026-04-24 22:19 39.75932 16.98086 23496 ft 438 kts 169°
2026-04-24 22:19 39.72928 16.98510 22785 ft 434 kts 169°
2026-04-24 22:20 39.69934 16.98882 22081 ft 431 kts 172°
2026-04-24 22:20 39.66959 16.99185 21392 ft 427 kts 171°
2026-04-24 22:20 39.64015 16.99541 20716 ft 424 kts 171°
2026-04-24 22:20 39.61107 16.99917 20053 ft 421 kts 171°
2026-04-24 22:21 39.58225 17.00304 19399 ft 417 kts 171°
2026-04-24 22:21 39.55352 17.00696 18758 ft 413 kts 171°
2026-04-24 22:21 39.52486 17.01093 18123 ft 409 kts 171°
2026-04-24 22:21 39.49705 17.01480 17542 ft 405 kts 171°
2026-04-24 22:22 39.46915 17.01869 16953 ft 400 kts 171°
2026-04-24 22:22 39.44168 17.02253 16391 ft 396 kts 171°
2026-04-24 22:22 39.41441 17.02635 15846 ft 391 kts 171°
2026-04-24 22:22 39.38743 17.03013 15328 ft 390 kts 172°
2026-04-24 22:23 39.36029 17.03393 14792 ft 391 kts 172°
2026-04-24 22:23 39.33354 17.03767 14235 ft 391 kts 172°
2026-04-24 22:23 39.30661 17.04143 13628 ft 389 kts 173°
2026-04-24 22:23 39.27964 17.04519 13015 ft 386 kts 173°
2026-04-24 22:24 39.25308 17.04887 12412 ft 382 kts 172°
2026-04-24 22:24 39.22668 17.05254 11850 ft 378 kts 172°
2026-04-24 22:24 39.20109 17.05610 11328 ft 373 kts 172°
2026-04-24 22:24 39.17535 17.05967 10853 ft 366 kts 172°
2026-04-24 22:25 39.15014 17.06317 10509 ft 360 kts 172°
2026-04-24 22:25 39.12560 17.06659 10387 ft 352 kts 172°
2026-04-24 22:25 39.10164 17.06990 10369 ft 334 kts 172°
2026-04-24 22:25 39.07936 17.07298 10347 ft 317 kts 172°
2026-04-24 22:26 39.05773 17.07598 10337 ft 302 kts 172°
2026-04-24 22:26 39.03741 17.07880 10330 ft 291 kts 172°
2026-04-24 22:26 39.01694 17.07868 10337 ft 295 kts 192°
2026-04-24 22:26 38.99872 17.06824 10268 ft 288 kts 219°
2026-04-24 22:27 38.98589 17.04878 10064 ft 288 kts 245°
2026-04-24 22:27 38.97743 17.02560 9838 ft 289 kts 248°
2026-04-24 22:27 38.96914 17.00208 9592 ft 288 kts 248°
2026-04-24 22:27 38.96110 16.97869 9342 ft 285 kts 249°
2026-04-24 22:28 38.95313 16.95519 9088 ft 283 kts 249°
2026-04-24 22:28 38.94537 16.93211 8838 ft 282 kts 250°
2026-04-24 22:28 38.93768 16.90915 8594 ft 281 kts 250°
2026-04-24 22:28 38.93003 16.88628 8340 ft 281 kts 250°
2026-04-24 22:29 38.91468 16.84035 7852 ft 277 kts 250°
2026-04-24 22:29 38.90707 16.81761 7597 ft 276 kts 250°
2026-04-24 22:29 38.89959 16.79525 7345 ft 275 kts 250°
2026-04-24 22:30 38.89198 16.77251 7087 ft 274 kts 250°
2026-04-24 22:30 38.88449 16.75013 6831 ft 273 kts 250°
2026-04-24 22:30 38.87707 16.72802 6577 ft 272 kts 250°
2026-04-24 22:30 38.86964 16.70586 6323 ft 271 kts 250°
2026-04-24 22:31 38.86224 16.68384 6068 ft 267 kts 250°
2026-04-24 22:31 38.85697 16.66147 5817 ft 256 kts 273°
2026-04-24 22:31 38.85874 16.63934 5593 ft 248 kts 283°
2026-04-24 22:31 38.86122 16.61765 5338 ft 246 kts 282°
2026-04-24 22:32 38.86366 16.59600 5084 ft 243 kts 283°
2026-04-24 22:32 38.86613 16.57468 4833 ft 241 kts 282°
2026-04-24 22:32 38.86861 16.55350 4569 ft 239 kts 283°
2026-04-24 22:32 38.87109 16.53244 4275 ft 239 kts 282°
2026-04-24 22:33 38.87362 16.51117 3962 ft 239 kts 283°
2026-04-24 22:33 38.87611 16.49021 3649 ft 239 kts 283°
2026-04-24 22:33 38.87862 16.46916 3326 ft 239 kts 282°
2026-04-24 22:33 38.88112 16.44817 3001 ft 232 kts 282°
2026-04-24 22:34 38.88338 16.42874 2685 ft 212 kts 281°
2026-04-24 22:34 38.88544 16.41064 2397 ft 196 kts 281°
2026-04-24 22:34 38.88744 16.39422 2168 ft 180 kts 281°
2026-04-24 22:34 38.88931 16.37887 1915 ft 168 kts 281°
2026-04-24 22:35 38.89102 16.36442 1674 ft 158 kts 281°
2026-04-24 22:35 38.89260 16.35100 1494 ft 145 kts 281°
2026-04-24 22:35 38.89399 16.33880 1318 ft 132 kts 279°
2026-04-24 22:35 38.89528 16.32759 1131 ft 130 kts 280°
2026-04-24 22:36 38.89669 16.31569 966 ft 137 kts 280°
2026-04-24 22:36 38.89806 16.30388 737 ft 131 kts 280°
2026-04-24 22:36 38.89952 16.29217 587 ft 134 kts 280°
2026-04-24 22:36 38.90088 16.28036 409 ft 133 kts 279°
2026-04-24 22:37 38.90229 16.26855 214 ft 133 kts 280°
2026-04-24 22:37 38.90370 16.25688 42 ft 132 kts 279°
2026-04-24 22:37 38.90495 16.24614 25 ft 102 kts 278°
2026-04-24 22:37 38.90572 16.23964 18 ft 54 kts 278°
2026-04-24 22:38 38.90611 16.23713 16 ft 23 kts 291°
2026-04-24 22:38 38.90704 16.23529 15 ft 22 kts 321°
2026-04-24 22:38 38.90815 16.23501 15 ft 15 kts 37°
2026-04-24 22:38 38.90833 16.23625 18 ft 14 kts 96°
2026-04-24 22:39 38.90816 16.23759 18 ft 15 kts 99°
2026-04-24 22:39 38.90798 16.23905 19 ft 17 kts 98°
2026-04-24 22:39 38.90782 16.24056 21 ft 17 kts 97°
2026-04-24 22:39 38.90783 16.24156 21 ft 10 kts 68°
2026-04-24 22:40 38.90815 16.24224 23 ft 3 kts 57°
2026-04-24 22:40 38.90843 16.24250 23 ft 6 kts 19°
2026-04-24 22:40 38.90887 16.24261 24 ft 4 kts
2026-04-24 22:40 38.90897 16.24268 24 ft 0 kts 45°
2026-04-24 22:41 38.90900 16.24278 25 ft 2 kts 82°
2026-04-24 22:41 38.90897 16.24303 25 ft 1 kts 98°
2026-04-24 22:41 38.90897 16.24307 25 ft 0 kts 98°